Wind_Speed
14 16 18 18 18 20 20 19 20 20 20 19 19 21 22 21 21 21 20 21 22 20 17 16 16 15 15 14 13 11 11 11 11 11 10 9 9 9 10 10 10 9 9 9 9 9 10 10 11 11 11 11 12 13 14 14 14 14 13 12 11 11 10 10 10 10 10 10 10 10 10 10 11 11 10 10 10 10 10 9 8 8 8 9 10
11 16 21 23 23 23 22 21 23 23 21 19 19 22 22 21 22 21 20 21 21 18 17 17 16 16 15 14 13 12 11 11 11 11 10 9 9 9 9 9 9 9 9 9 9 10 10 10 10 11 12 12 12 13 14 14 14 14 12 10 10 10 10 11 10 10 10 10 9 10 10 11 13 13 12 12 11 10 9 9 8 8 9 9 10
10 15 20 24 25 25 24 23 23 23 21 18 19 20 21 21 22 22 21 23 22 18 17 18 17 16 15 13 13 12 11 11 11 10 10 9 9 9 8 8 8 8 9 9 10 10 10 10 11 12 12 12 11 12 13 12 12 12 10 9 10 10 10 10 10 10 10 9 8 8 9 11 12 13 12 11 10 9 9 8 8 8 9 10 10
9 11 17 21 22 23 23 21 21 22 21 18 18 19 21 22 22 22 22 23 23 21 20 19 18 16 14 13 13 11 10 10 10 9 9 9 9 9 9 9 9 9 9 9 10 10 11 11 12 12 12 12 11 11 11 11 11 11 9 9 9 9 9 9 9 10 9 7 6 6 6 6 7 9 9 8 9 8 8 7 7 8 9 9 10
11 10 12 16 18 18 18 17 18 21 21 20 20 21 24 23 22 22 22 23 24 23 21 19 18 16 15 13 12 10 10 9 9 9 9 9 9 10 10 10 10 10 10 10 11 12 12 12 12 11 11 10 10 10 11 11 10 9 8 8 8 8 8 8 7 8 8 6 6 5 4 3 4 6 6 6 7 7 8 8 8 8 9 9 10
13 10 11 15 17 15 14 15 16 18 19 21 22 23 25 25 24 24 24 25 27 25 22 20 19 17 15 13 12 11 10 10 9 9 9 9 10 11 11 11 11 10 9 9 11 12 13 12 12 10 10 10 10 10 10 10 9 8 7 7 7 7 8 7 6 6 7 7 6 5 5 6 6 7 8 7 7 7 8 9 9 9 9 9 11
15 13 14 16 17 16 15 15 16 17 18 20 21 21 23 25 25 26 27 28 27 25 22 21 20 18 16 14 13 12 11 10 10 9 10 11 11 10 11 11 11 10 9 9 11 12 12 11 11 10 10 10 10 9 9 9 9 8 8 8 8 8 8 8 8 8 8 8 8 7 7 8 8 9 10 10 9 9 10 11 11 11 12 13 13
17 16 17 18 17 17 17 17 17 17 18 19 20 22 23 24 24 24 26 27 27 25 23 22 21 19 17 15 14 13 12 11 10 9 10 10 10 10 11 11 11 10 10 10 11 11 11 11 11 11 10 10 10 9 9 9 9 9 9 9 10 10 10 10 10 10 10 10 10 11 10 10 9 10 11 12 12 11 12 13 13 14 15 16 16
18 17 18 19 18 18 19 18 18 17 18 20 21 21 22 24 23 23 24 25 26 25 24 23 22 19 18 17 15 14 12 11 10 10 9 8 9 10 11 11 11 11 10 10 11 11 11 11 11 11 11 11 10 10 10 10 9 9 10 10 11 12 12 12 12 12 13 13 13 13 13 13 13 13 13 14 14 14 16 17 16 16 17 18 18
17 16 16 17 18 19 20 20 19 18 19 21 22 21 21 24 26 27 27 25 25 25 25 24 23 21 19 18 15 14 13 12 10 10 9 8 9 10 11 11 12 11 11 11 11 12 12 12 13 13 12 12 11 10 10 10 11 11 11 12 13 13 14 14 15 15 16 16 17 17 17 17 17 17 17 17 17 17 18 19 18 18 19 20 18
11 13 14 16 18 19 20 20 19 20 21 21 21 21 21 24 26 28 28 26 25 26 25 25 24 23 21 18 16 15 14 12 11 11 10 9 10 11 11 12 12 12 12 13 13 13 13 13 13 13 13 12 12 12 12 12 13 13 14 15 15 16 17 18 18 18 18 18 20 20 21 21 21 20 20 20 20 19 19 19 19 19 20 21 20
9 11 12 14 17 19 20 20 19 19 20 18 18 20 22 24 27 28 27 26 25 26 26 25 24 23 21 19 17 16 15 14 13 12 12 12 12 13 13 13 14 14 14 15 15 15 15 14 14 14 14 14 14 14 14 14 15 16 17 17 18 19 20 20 21 21 21 21 22 22 23 23 23 23 23 23 23 22 22 22 22 22 22 23 23
9 11 10 9 9 11 14 18 19 19 19 18 18 19 21 24 27 28 26 25 25 25 26 27 26 24 22 20 19 18 17 16 15 15 15 15 15 15 15 15 16 16 16 16 16 16 16 16 15 15 15 15 15 15 15 16 16 17 18 20 21 21 22 23 23 23 23 24 24 24 25 25 25 26 26 26 26 25 25 24 24 25 26 27 26
9 10 8 5 2 4 7 10 15 18 19 20 18 18 20 24 27 28 26 23 23 26 27 28 28 26 23 22 21 20 19 19 18 18 18 18 18 19 18 18 18 17 17 17 17 17 17 17 17 16 14 14 15 15 16 16 16 17 18 20 22 22 23 23 24 25 25 25 25 26 27 27 27 28 28 28 28 27 26 26 27 29 30 30 30
9 9 8 6 2 2 5 6 9 13 16 16 16 19 22 24 25 26 26 23 23 26 28 28 28 27 25 24 24 23 22 20 20 20 20 20 21 22 22 20 19 19 18 18 18 18 17 19 19 18 16 14 15 15 16 17 17 18 18 18 18 18 19 21 22 24 25 26 26 26 27 28 28 29 29 29 29 28 28 28 29 31 33 33 33
9 8 8 7 5 2 3 5 7 11 14 14 16 20 22 21 22 26 26 25 25 26 26 27 27 26 26 26 25 24 23 23 22 22 22 22 22 23 24 22 21 20 20 20 21 19 18 19 19 18 17 16 16 17 18 19 20 21 20 20 19 18 18 18 20 22 24 26 27 27 28 28 28 29 29 30 30 30 30 29 30 32 34 34 34
10 10 8 8 7 5 5 6 8 10 13 15 16 17 18 19 20 26 28 27 26 26 26 27 27 26 26 27 26 25 25 25 25 26 25 25 24 25 26 24 22 22 23 22 23 23 22 21 20 18 18 18 19 22 24 25 26 26 26 24 22 20 19 18 19 20 22 23 24 25 27 28 29 29 30 30 31 31 31 31 32 35 36 37 37
9 9 9 8 7 5 6 7 8 9 10 14 16 14 16 18 19 22 26 26 25 26 27 26 27 26 26 25 25 26 26 25 27 27 26 25 24 24 25 25 25 26 26 24 25 27 27 26 23 22 21 23 24 25 26 26 27 29 31 32 29 24 22 21 20 20 21 21 22 23 25 27 29 30 31 31 32 32 33 34 35 36 37 38 39
7 6 6 7 5 4 5 5 6 8 8 9 13 12 13 18 18 19 23 24 24 25 26 27 29 29 28 27 26 26 25 25 26 27 25 24 24 24 25 27 29 29 29 28 28 29 29 28 27 26 26 26 25 23 21 20 20 22 26 31 32 29 26 24 23 22 23 23 23 24 25 26 28 29 31 32 33 34 35 36 36 36 36 36 38
6 5 4 5 5 4 4 4 4 6 6 4 8 9 9 12 15 17 22 23 23 23 25 26 26 26 28 29 28 27 26 27 27 26 24 24 25 25 26 29 30 29 28 28 29 30 30 30 28 28 27 26 24 21 19 18 18 18 18 20 23 24 24 23 23 23 24 25 25 26 27 28 29 30 32 33 34 35 35 36 35 35 35 35 36
6 7 4 3 5 4 2 2 2 1 1 3 8 9 8 9 14 18 21 22 22 23 24 24 24 24 25 27 29 30 29 30 32 30 27 27 26 25 25 27 28 28 27 27 27 28 29 28 27 26 26 25 24 22 21 20 20 20 20 19 19 20 22 22 23 23 24 25 26 26 28 29 30 31 32 33 33 34 34 34 34 35 36 37 38
8 9 7 6 6 4 1 2 2 2 4 3 3 6 7 6 9 15 18 18 17 18 20 21 22 22 22 24 28 31 32 33 33 33 31 27 24 23 25 27 27 26 26 25 25 25 25 25 25 26 26 25 24 23 23 24 23 21 20 19 19 19 20 21 21 22 23 23 24 25 27 28 29 31 32 33 33 34 35 35 36 37 38 40 41
8 9 9 8 7 6 3 4 4 1 5 5 2 2 4 3 3 7 11 12 12 13 15 17 18 17 16 17 20 23 26 27 27 26 25 22 21 22 24 25 25 26 25 24 23 23 23 24 25 26 26 25 25 24 24 22 20 19 18 18 18 19 20 21 22 23 24 25 26 27 28 29 31 32 34 35 36 37 37 38 39 40 41 42 43
9 8 9 9 6 5 7 5 3 2 5 6 5 4 4 4 4 5 7 8 10 11 12 14 16 16 15 16 16 17 18 19 19 18 19 20 21 23 24 25 25 25 25 24 23 24 24 24 25 25 25 24 23 22 21 19 19 19 19 20 21 22 23 24 25 26 27 28 29 30 31 32 33 34 35 36 37 37 38 38 38 39 40 41 42
9 9 10 10 7 5 8 6 2 4 6 8 9 8 6 5 6 6 7 8 8 9 10 10 10 10 11 13 16 17 17 17 17 18 18 19 20 22 23 24 24 24 24 24 23 24 24 24 24 23 22 22 21 21 20 21 21 22 23 24 25 25 26 27 28 29 30 31 32 32 33 33 34 34 34 35 35 36 36 37 37 38 38 39 40
10 10 10 11 8 6 7 6 5 8 8 9 10 11 10 10 9 8 9 9 9 10 11 9 7 8 9 10 11 12 13 15 18 19 18 18 18 20 21 22 22 23 23 23 23 23 22 22 22 21 21 22 22 23 23 24 25 25 26 27 27 28 29 30 30 31 31 31 31 31 31 31 31 31 31 31 32 33 34 34 35 35 36 37 38
12 11 10 10 9 8 7 8 9 10 10 9 10 11 12 14 14 13 12 12 12 12 13 12 11 12 13 12 12 12 12 14 15 16 16 16 17 19 20 21 21 22 22 21 21 21 21 21 21 22 23 24 25 25 26 26 27 27 27 28 28 29 29 29 29 29 28 28 28 28 29 28 28 28 29 29 30 31 32 33 33 34 35 36 36
13 12 11 10 10 9 9 9 10 12 13 13 13 13 13 14 16 16 16 16 15 14 13 14 15 16 15 14 14 14 14 13 13 13 14 15 16 17 18 18 19 19 19 20 20 21 22 23 24 25 25 26 26 27 27 27 27 27 27 27 27 26 26 26 25 25 25 25 26 26 26 27 27 27 28 28 29 30 31 32 33 34 34 35 35
15 13 11 10 10 10 10 10 11 12 13 14 14 13 13 14 15 16 16 15 14 13 12 12 13 13 12 12 12 12 13 13 13 13 14 14 15 16 17 18 19 20 21 22 23 24 25 25 26 26 26 26 27 26 26 26 26 26 25 25 24 24 23 23 22 22 22 23 23 24 25 26 26 27 27 28 29 29 30 31 31 31 32 32 31
13 12 12 11 11 10 10 10 10 11 11 12 12 12 12 13 13 14 14 13 12 11 10 10 10 11 12 12 13 14 14 15 16 16 16 17 18 19 19 20 21 22 24 25 25 25 26 26 26 26 26 26 26 25 25 24 24 24 23 22 21 21 20 20 19 20 20 21 22 23 24 25 26 26 27 27 27 27 27 27 27 28 28 28 28
12 12 12 11 11 11 11 10 10 11 11 11 11 11 11 12 12 12 13 12 12 11 11 11 12 13 14 14 15 16 16 17 18 19 19 19 20 20 21 22 24 25 26 26 26 25 25 25 25 25 25 25 24 24 23 22 21 20 19 18 18 17 17 18 19 19 20 21 22 23 24 25 26 26 26 26 26 26 26 26 26 26 26 25 25
12 12 12 12 12 12 11 10 10 11 12 13 13 13 13 13 13 13 13 13 13 14 15 15 16 16 17 17 17 17 17 18 19 20 20 20 21 21 22 24 25 25 25 25 25 24 24 24 24 23 23 23 22 21 20 18 17 16 15 15 15 16 17 17 18 19 20 21 22 23 24 24 25 25 24 24 25 25 25 25 24 24 24 24 24
12 12 12 13 13 13 12 12 12 13 13 14 14 14 14 15 15 15 16 16 16 17 18 18 19 20 20 20 20 20 20 20 21 22 22 22 22 22 23 24 25 24 24 24 23 23 22 22 22 21 20 19 18 16 15 14 13 13 13 14 14 15 16 17 19 20 21 22 22 22 23 23 23 23 23 23 23 23 23 23 23 24 24 25 25
13 13 14 14 14 14 14 14 14 15 15 15 15 15 15 15 16 17 17 18 18 19 20 20 20 21 21 21 21 21 21 21 21 22 22 22 22 22 23 24 23 22 22 21 21 20 19 19 18 16 15 14 14 13 12 12 12 11 12 13 14 15 17 18 19 19 20 20 21 21 21 22 22 22 22 22 23 23 22 23 23 23 23 23 22
12 13 14 14 14 14 14 14 15 15 15 15 15 15 15 15 16 16 17 18 18 19 19 19 19 20 20 21 21 21 20 20 20 21 21 21 21 21 22 21 20 19 18 18 17 16 15 14 14 13 12 12 11 11 10 10 10 11 12 14 15 16 16 17 18 18 19 19 20 21 22 22 22 22 22 22 22 22 21 21 21 19 18 18 17
12 13 13 13 14 14 15 15 15 15 15 15 15 16 16 16 17 17 18 18 19 19 19 19 19 19 19 20 21 21 20 19 18 19 19 19 19 19 19 17 16 15 14 14 13 13 13 12 12 11 10 10 9 9 9 9 10 12 13 14 14 15 15 16 17 17 18 19 20 21 22 22 21 21 21 20 20 19 18 17 16 15 15 15 14
12 13 13 13 13 13 14 14 14 14 15 15 16 16 17 17 18 19 19 19 19 19 19 19 18 18 19 19 20 20 19 18 17 16 17 16 16 16 15 13 12 12 12 12 12 11 11 10 10 9 8 8 8 9 10 11 11 12 12 13 13 14 15 15 16 17 18 19 20 20 20 20 19 19 18 17 17 16 15 14 14 14 14 13 11
12 12 13 13 13 13 12 12 12 13 13 14 15 15 16 16 17 18 19 20 20 19 19 18 18 18 18 18 18 18 18 17 16 15 14 14 13 13 12 11 11 11 11 10 10 9 8 8 7 7 8 8 9 10 10 10 11 11 12 13 13 14 15 16 17 17 18 18 18 18 17 17 17 16 16 15 15 14 14 14 14 13 12 10 9
11 11 12 13 13 13 12 12 12 12 12 13 14 14 14 15 16 17 18 18 19 18 18 17 17 17 17 16 16 15 15 15 14 13 12 11 11 11 11 11 11 10 10 9 8 8 7 7 7 7 8 8 8 9 9 10 10 11 13 13 14 15 15 16 16 16 16 16 16 16 16 15 15 15 14 14 14 14 13 13 12 11 9 9 9
10 10 10 10 11 11 12 12 12 12 12 13 13 13 14 14 15 16 17 17 17 17 16 15 15 15 15 14 13 13 12 12 12 11 11 11 11 10 10 10 10 9 8 8 7 7 7 7 7 7 7 7 7 8 8 9 11 12 13 13 14 14 14 14 14 14 14 14 14 14 14 14 13 13 12 12 11 11 10 9 9 9 10 11 12
9 10 10 10 10 10 10 11 12 12 12 12 13 13 13 13 14 16 17 17 16 16 15 14 13 14 14 13 11 10 10 9 10 10 10 10 10 10 9 9 8 8 7 6 6 6 7 7 7 7 6 6 7 7 8 9 10 11 12 12 13 13 13 12 12 12 12 12 12 12 12 12 11 11 10 10 9 9 8 8 9 11 12 13 14
9 9 10 10 10 10 10 11 12 13 13 12 12 11 11 12 14 15 17 17 15 14 14 13 12 13 13 12 10 9 9 8 8 9 9 9 9 9 8 8 7 6 6 6 7 7 7 7 6 5 5 5 6 7 7 8 9 9 10 10 11 11 11 11 11 11 11 11 11 10 10 10 10 9 9 8 8 9 9 10 11 11 12 12 13
9 8 9 9 10 11 12 12 12 12 13 12 10 10 10 11 13 14 16 16 15 13 12 12 11 11 12 11 10 9 9 8 7 8 8 8 8 8 7 7 7 7 7 8 7 7 6 5 4 3 4 4 5 5 6 6 7 7 8 8 9 9 9 9 9 9 9 9 9 9 9 9 9 9 8 8 8 9 9 10 10 11 11 12 13
11 10 10 10 10 11 12 13 12 12 12 11 9 9 10 11 12 13 15 16 15 13 12 11 11 10 10 10 9 9 8 7 7 7 7 7 7 7 7 7 7 8 8 7 6 5 4 3 2 2 2 3 3 4 4 5 5 6 6 6 7 7 7 7 7 7 7 7 8 8 8 8 9 9 9 10 10 10 11 11 12 12 12 13 13
12 12 11 11 11 12 13 13 13 12 11 10 9 9 10 10 11 13 14 15 14 13 11 10 10 10 9 9 8 8 8 7 7 7 7 8 8 8 8 8 8 7 7 6 5 4 3 2 1 1 1 1 2 3 3 3 4 4 4 5 5 6 6 7 7 7 7 8 8 8 9 9 9 10 10 11 12 12 13 13 13 13 14 14 14
13 13 13 12 12 13 13 13 13 13 11 10 9 9 10 10 11 12 14 14 14 14 12 10 9 10 10 9 8 8 9 9 8 8 8 8 8 8 8 8 7 7 6 6 5 4 4 3 2 1 1 0 1 2 2 2 3 3 4 4 5 6 7 7 7 8 8 8 8 8 9 9 9 9 10 11 11 11 12 12 13 13 14 14 14
14 14 13 13 13 13 13 13 13 13 12 11 11 10 10 11 11 12 13 14 15 15 13 11 9 9 11 11 10 9 10 10 10 10 9 9 9 9 8 8 8 8 7 7 6 5 5 4 3 2 1 1 1 1 2 2 3 3 4 5 5 6 7 7 7 7 7 7 7 8 8 9 9 10 10 11 11 11 11 12 12 13 13 13 14
13 13 14 14 14 13 13 13 13 13 12 12 12 12 12 12 12 12 12 13 14 14 14 13 11 10 10 11 11 10 10 10 10 10 10 10 9 9 9 9 9 9 9 8 7 6 5 5 4 3 2 1 1 2 2 3 3 3 4 5 5 5 5 5 6 7 7 8 8 8 9 9 10 10 11 11 12 12 12 13 13 13 14 14 14
13 13 13 14 14 14 14 14 14 14 13 13 13 13 13 12 12 12 12 12 13 14 13 12 12 11 9 9 10 10 9 9 10 10 10 10 10 10 10 10 10 9 9 8 7 7 6 5 4 3 2 2 1 2 2 2 2 2 3 3 4 4 5 6 7 7 8 8 9 9 9 10 10 11 11 11 12 12 12 13 13 14 14 15 15
12 12 13 13 14 14 14 14 14 15 15 14 14 14 14 13 13 13 12 12 13 13 12 11 11 11 10 8 9 9 9 9 9 10 10 11 11 11 11 11 10 9 9 8 7 7 6 5 4 3 2 1 1 1 1 0 1 1 2 3 4 5 6 6 7 8 8 9 9 9 10 10 10 11 11 11 12 12 13 13 13 14 14 14 14
11 12 12 13 13 14 14 15 15 15 15 15 15 15 15 14 13 13 13 12 12 12 12 10 9 9 9 8 8 8 9 9 9 10 11 11 12 12 12 11 10 9 9 8 8 7 6 5 4 3 3 2 2 3 3 3 3 3 3 3 4 5 5 6 7 7 8 8 9 10 10 10 10 11 11 12 12 12 13 13 13 13 14 14 14
Wind_Direction
200 197 197 203 213 216 214 219 224 221 219 223 227 227 225 222 225 225 216 211 205 193 192 197 195 195 199 200 202 201 200 204 211 218 223 223 223 225 226 226 227 228 229 229 225 218 214 218 223 228 231 229 227 228 227 226 225 226 230 234 236 238 243 249 251 251 253 254 258 261 262 263 266 268 270 268 265 266 269 268 264 260 259 259 259
204 200 197 197 201 205 207 214 220 219 218 222 226 226 221 218 221 222 215 215 215 201 189 194 196 194 194 193 194 198 197 200 207 215 222 224 222 223 223 222 224 228 229 227 221 216 217 221 223 226 229 229 230 233 233 234 234 229 226 234 240 240 245 249 247 248 254 256 257 260 261 263 265 268 271 271 269 267 266 264 260 257 253 250 253
204 200 196 194 197 202 207 214 218 218 216 218 224 222 217 215 217 217 213 212 214 205 192 194 196 193 191 191 195 201 202 205 210 212 214 216 215 215 214 214 217 222 224 222 219 216 216 219 222 225 229 229 229 236 237 236 236 233 228 233 241 243 248 250 242 238 247 252 251 253 260 264 267 270 271 270 268 266 264 264 264 262 256 252 252
209 204 198 201 206 207 209 214 216 215 212 214 220 216 212 213 212 210 210 209 209 202 193 193 193 191 193 196 200 204 206 212 216 214 213 212 209 206 204 204 207 212 215 214 214 213 211 214 219 222 226 229 227 233 235 230 230 237 238 239 242 245 249 250 240 230 235 249 253 255 263 266 269 273 270 265 266 266 263 264 266 265 262 259 258
222 217 212 218 223 220 219 224 222 218 214 211 211 209 207 207 206 204 205 206 203 198 193 192 191 191 194 195 199 203 206 212 214 213 213 207 202 202 198 198 203 207 210 210 208 207 207 211 217 220 223 225 223 226 229 229 231 237 240 242 246 247 246 244 237 228 230 247 259 265 278 284 282 279 272 268 272 270 265 263 261 262 263 263 263
246 241 237 238 238 232 231 234 235 234 229 220 214 211 206 202 199 197 199 203 201 196 193 193 191 190 190 190 194 199 203 207 209 208 206 203 204 201 193 195 203 205 206 209 209 208 209 213 218 221 223 224 225 229 232 234 236 235 237 244 251 250 244 243 245 243 243 253 261 267 280 288 293 292 288 286 286 283 280 278 274 269 265 262 260
270 264 257 251 245 241 239 240 245 247 243 235 227 219 211 202 198 196 196 201 202 198 195 194 191 190 187 186 192 197 199 204 208 206 202 202 204 199 193 197 204 203 201 207 213 214 215 218 220 223 229 233 234 237 239 238 235 231 231 238 245 247 243 243 249 255 259 266 274 280 279 279 283 289 292 291 293 296 293 286 280 273 268 263 260
269 265 263 259 249 243 242 243 247 249 248 241 229 220 212 203 200 199 195 197 200 199 197 194 191 190 188 188 194 197 199 205 208 207 206 207 204 196 195 201 205 206 204 207 213 216 219 222 223 226 234 238 239 237 238 239 236 233 234 238 247 252 252 253 256 261 266 271 276 278 276 273 271 275 281 283 287 291 286 278 275 274 273 271 270
268 263 261 260 253 246 243 242 241 241 244 239 228 221 212 202 200 198 192 196 200 198 197 195 193 193 193 194 198 200 205 211 212 211 214 215 209 202 200 202 206 209 208 210 214 214 215 219 223 227 230 232 235 234 236 241 242 242 243 244 250 256 261 266 271 275 277 276 275 274 271 269 266 266 268 271 275 277 276 278 279 276 272 269 268
271 268 264 260 254 250 247 245 240 236 238 236 229 224 214 204 201 195 190 196 202 199 199 198 195 196 198 198 200 203 211 217 218 219 221 221 218 215 212 210 211 212 210 210 212 212 212 214 220 225 225 226 230 233 237 245 250 252 252 253 258 263 267 270 272 275 278 278 279 278 277 274 272 272 273 272 272 273 274 276 275 272 271 270 269
281 275 271 261 253 251 249 246 242 237 236 232 225 221 210 199 196 193 192 199 204 202 203 203 200 200 202 201 203 209 217 221 223 226 229 227 224 223 220 216 216 216 213 209 207 208 209 212 217 221 224 229 234 236 239 245 250 253 255 257 261 265 269 272 272 273 274 276 278 280 282 282 280 280 279 276 274 276 277 276 274 272 274 275 275
305 296 290 273 256 250 246 242 237 234 233 228 221 218 211 199 192 191 194 200 203 204 205 206 207 207 206 206 208 214 222 227 228 232 235 233 231 228 224 220 220 219 217 213 210 208 208 211 216 220 224 230 236 239 243 247 251 253 254 256 259 264 268 272 273 274 274 274 276 278 280 282 282 282 280 278 277 280 280 280 280 280 280 280 280
317 313 314 297 264 257 253 241 233 230 227 225 221 218 217 210 199 193 196 200 202 206 208 208 210 211 211 211 213 217 224 231 233 234 236 236 234 233 230 227 227 226 223 220 218 218 218 217 219 223 224 229 236 240 244 248 251 255 257 257 258 260 263 267 270 272 273 273 274 276 277 279 280 280 280 279 279 280 282 283 284 284 284 284 283
329 326 337 344 294 299 297 257 235 229 225 225 226 218 216 218 210 200 199 201 203 207 210 211 212 212 212 214 217 221 225 230 234 236 237 238 236 235 233 233 235 235 233 229 226 224 224 222 221 223 226 231 238 244 249 253 255 258 261 259 256 256 259 261 264 267 270 272 272 273 273 275 276 277 277 278 278 280 282 284 285 285 285 285 284
342 337 340 347 358 334 314 279 245 237 233 232 227 214 212 217 212 204 202 201 204 209 211 212 213 212 214 217 220 223 225 228 233 236 238 240 240 237 234 233 234 235 235 234 230 223 222 225 226 225 226 231 239 246 253 259 261 262 262 260 260 262 263 263 264 266 269 270 271 270 271 273 273 274 275 278 280 281 282 283 284 285 285 285 286
345 339 330 324 324 315 288 273 250 242 243 239 221 210 216 223 213 205 205 203 204 210 210 210 212 211 214 218 221 224 227 229 233 237 239 241 243 241 237 234 232 232 230 230 232 231 229 230 231 231 235 243 251 255 258 261 262 264 264 263 265 268 272 272 271 270 271 271 271 271 272 273 273 272 273 276 278 279 280 281 282 282 282 282 283
339 336 328 316 306 289 267 265 264 255 246 245 236 224 229 237 218 204 208 209 206 209 210 209 211 212 213 219 223 227 231 233 235 236 236 237 239 240 239 235 232 232 231 231 237 243 241 239 242 249 254 258 264 269 270 267 264 263 262 262 262 264 267 270 271 272 272 272 272 272 272 272 271 270 271 272 273 274 276 277 279 279 280 281 281
333 329 327 325 317 301 280 273 279 274 248 246 255 242 222 225 217 205 211 216 210 209 211 211 212 212 212 217 224 229 233 236 235 233 231 231 233 235 236 236 234 236 237 239 246 251 251 251 257 266 270 272 275 276 274 272 269 265 260 256 255 257 261 266 269 273 274 274 274 273 271 270 269 268 268 269 270 271 274 277 278 279 281 282 283
332 331 330 331 327 308 292 283 280 282 267 251 264 260 224 220 223 212 211 216 212 208 212 215 216 218 219 223 230 233 229 227 229 230 229 230 233 234 236 238 239 242 245 248 252 256 258 260 266 271 275 279 280 278 274 275 278 276 267 258 253 254 261 265 268 270 271 272 272 271 270 269 268 268 269 269 271 273 276 279 280 280 281 282 283
336 340 352 349 335 318 307 303 283 287 296 244 231 249 239 229 233 221 208 210 211 206 207 211 214 219 222 225 231 234 226 218 219 222 224 227 232 237 240 242 245 248 253 256 257 260 262 266 269 272 276 280 281 279 278 279 281 283 280 269 260 259 264 268 270 271 271 271 271 270 270 270 270 271 271 272 274 275 277 279 280 281 282 282 282
330 331 340 337 326 339 3 336 310 289 12 171 197 231 250 237 233 227 216 214 216 215 214 216 218 223 226 223 223 227 226 221 221 224 230 235 237 238 241 245 247 251 255 259 261 263 266 268 269 271 274 278 278 276 276 277 278 279 280 277 272 269 269 271 273 273 273 273 272 272 272 272 272 273 274 274 275 276 278 279 280 282 283 283 283
316 319 319 305 300 315 360 283 307 79 98 112 194 245 263 259 238 227 222 223 226 227 228 230 231 235 237 233 231 231 231 229 230 235 240 243 240 236 238 244 249 253 257 261 263 264 265 267 269 271 275 277 277 277 278 279 280 279 277 276 276 275 275 276 277 277 278 277 277 277 276 275 275 275 275 276 276 277 277 278 279 280 280 281 281
310 310 314 313 308 306 278 255 270 161 128 126 129 222 241 264 249 219 216 221 227 229 231 234 237 236 234 234 235 234 232 230 231 234 237 236 233 233 238 244 249 253 258 261 263 263 264 266 269 272 274 274 275 277 278 279 279 279 280 282 282 282 282 282 282 282 281 281 280 280 279 278 278 277 278 278 279 279 279 279 279 279 279 279 280
305 304 309 320 324 304 288 278 266 209 177 168 163 171 195 223 236 231 227 226 230 238 242 243 241 234 228 230 232 229 227 226 225 226 227 227 227 231 236 242 246 250 253 256 258 260 262 265 266 267 268 270 272 275 276 277 279 281 282 283 283 283 283 282 282 282 281 281 281 281 282 282 282 282 283 283 283 284 283 283 283 282 282 282 282
292 291 295 303 303 282 282 284 203 182 207 208 196 183 182 207 227 239 246 240 237 244 246 241 237 232 232 238 238 233 229 228 226 225 223 222 223 228 233 239 242 246 249 252 255 258 259 261 262 264 266 269 272 275 278 279 281 282 282 283 283 283 283 283 283 282 282 283 283 283 284 284 284 284 284 284 284 284 284 284 284 284 284 283 283
271 271 275 284 286 269 265 264 219 198 209 223 220 206 198 203 211 217 224 224 222 225 223 216 218 232 241 245 245 242 236 230 231 232 229 227 229 231 235 240 243 247 249 251 253 255 256 257 260 263 268 272 275 278 279 280 281 282 282 283 282 282 282 282 282 282 283 283 283 283 283 283 283 283 284 284 284 285 285 285 286 285 285 285 285
254 258 261 271 281 277 261 255 247 235 231 237 242 233 219 215 217 216 215 216 217 219 218 215 214 220 228 232 236 239 235 229 229 232 231 232 235 238 242 246 248 252 254 254 255 258 260 263 267 270 272 275 277 278 278 279 280 280 280 280 280 280 280 281 281 282 283 283 283 284 284 285 286 286 287 287 287 288 288 288 288 288 288 288 288
239 245 250 255 263 267 260 252 251 252 251 247 245 242 233 227 227 227 223 223 225 223 222 222 219 216 220 226 231 236 238 236 235 236 236 238 241 244 248 252 256 260 263 264 266 268 269 271 272 273 274 275 276 276 277 277 277 278 278 278 279 280 281 282 282 283 284 285 286 287 288 289 290 291 291 291 291 291 292 292 292 292 292 292 292
230 227 228 229 233 236 239 240 240 243 246 244 240 237 233 229 230 230 225 221 221 218 217 223 226 226 229 236 243 249 255 257 256 254 253 254 256 258 261 263 265 267 268 268 268 269 270 271 271 272 273 274 274 275 276 276 278 279 281 282 282 282 282 282 283 284 285 286 287 288 290 291 292 293 293 294 294 294 294 294 294 294 295 295 296
245 234 224 220 223 226 231 236 238 238 239 240 240 239 237 236 237 236 234 232 230 226 224 228 235 241 246 253 258 263 266 268 267 267 266 266 267 268 269 269 269 268 267 267 268 268 269 270 271 271 272 273 274 276 277 279 280 281 282 281 281 281 281 282 284 285 287 288 290 292 295 296 297 298 299 299 299 298 298 297 297 297 297 298 298
270 263 253 243 238 237 237 241 247 250 250 250 251 252 251 251 250 250 252 255 257 256 252 250 249 250 253 256 261 264 267 267 268 268 268 268 268 269 269 269 268 267 266 267 268 269 271 272 273 274 275 276 277 277 278 278 278 278 278 278 279 280 283 286 289 292 296 299 301 302 303 304 304 304 304 304 304 303 303 303 302 301 301 302 302
273 271 267 261 256 253 252 256 263 266 264 262 262 263 263 263 264 265 267 268 268 269 268 265 263 261 261 263 264 267 269 270 270 271 271 270 270 269 268 266 265 266 267 270 271 273 274 275 276 276 275 275 274 274 273 273 273 274 276 278 282 287 292 297 302 305 307 307 308 308 307 307 307 306 307 306 306 306 307 307 307 308 309 310 311
273 270 266 264 265 267 269 272 274 274 272 271 269 268 268 268 268 269 269 269 269 269 269 269 268 267 268 268 269 271 271 272 273 273 272 272 270 269 268 267 267 269 271 272 273 272 272 270 270 269 268 268 268 268 269 270 272 275 280 286 293 300 304 307 308 308 308 308 308 308 307 307 307 308 309 309 310 310 311 311 312 313 313 313 314
274 271 267 265 265 266 268 271 273 275 277 279 278 276 275 273 271 270 269 268 268 268 269 270 271 272 272 272 273 273 273 272 272 272 271 270 269 268 267 267 268 270 270 269 268 267 265 263 262 261 260 260 261 263 266 270 276 284 292 298 303 305 306 306 306 306 307 307 308 308 308 308 308 309 310 311 312 313 314 314 314 314 313 312 311
274 274 273 272 270 269 268 269 271 274 277 280 282 282 281 278 275 273 271 269 269 269 270 270 272 273 274 274 273 273 272 271 270 270 270 269 268 267 266 266 267 266 264 262 261 259 258 256 256 255 255 256 258 262 267 275 285 293 298 300 302 303 305 307 308 310 312 313 313 314 313 313 312 312 311 312 313 314 315 315 315 314 314 314 312
280 280 280 279 279 279 278 276 276 277 277 278 279 281 282 282 281 278 276 275 274 274 273 273 273 273 274 274 273 272 271 270 269 268 267 266 265 265 264 264 263 259 256 253 251 249 249 249 250 252 254 258 263 271 280 288 294 297 299 302 304 307 310 313 315 318 319 320 321 321 319 318 318 316 315 313 312 311 312 313 314 315 317 317 315
289 287 286 285 285 286 287 286 285 282 279 277 276 275 276 278 278 278 278 279 279 279 279 280 280 280 280 278 276 275 275 273 271 268 265 263 262 261 260 257 253 249 246 244 244 244 246 248 252 257 264 272 280 286 291 294 298 300 304 307 310 313 317 319 321 323 324 325 325 324 322 320 318 316 315 312 310 311 313 313 314 316 316 314 309
286 287 288 288 288 289 291 292 291 286 280 275 274 274 276 278 278 278 278 279 280 283 285 286 286 286 284 281 278 275 274 272 269 264 260 257 256 254 251 246 244 243 242 243 245 247 251 256 263 271 277 282 287 290 292 296 300 304 309 314 317 320 323 324 325 326 327 327 325 323 319 316 313 312 313 313 314 316 316 314 312 312 310 304 299
278 280 283 284 285 288 290 291 289 285 280 276 276 278 280 281 281 281 282 282 284 286 288 289 289 286 283 281 277 272 269 268 265 258 251 246 244 242 240 239 240 241 243 246 249 254 260 266 272 277 280 283 287 290 295 302 308 314 319 322 324 326 327 327 327 327 325 323 320 318 316 315 315 316 318 317 316 314 311 307 305 304 302 302 305
286 283 282 282 282 283 283 282 282 282 281 281 282 283 284 284 284 282 281 282 285 288 291 292 291 287 283 280 275 269 265 262 259 252 244 238 235 235 235 236 237 239 242 247 253 261 268 273 275 277 280 284 290 298 307 316 321 324 326 327 328 328 328 327 325 322 319 318 318 319 321 322 323 323 321 317 311 307 302 299 299 303 308 313 317
308 301 298 296 293 288 283 279 277 277 278 280 283 286 289 290 288 285 283 285 290 296 299 300 298 292 286 282 278 271 265 259 254 248 241 234 232 231 231 232 234 238 244 252 258 262 264 266 268 272 280 291 304 314 321 326 328 328 328 328 327 326 324 322 319 317 317 318 320 323 326 328 327 323 317 309 303 300 300 302 308 314 317 319 321
322 316 311 308 304 299 292 285 280 279 279 281 284 289 291 289 287 285 285 288 294 300 302 303 300 294 288 285 282 276 268 260 253 247 240 232 228 227 227 230 234 241 246 248 250 251 253 256 264 278 294 308 318 324 326 329 330 330 328 327 325 323 322 322 320 320 321 323 324 325 326 326 324 321 316 312 311 311 313 316 320 323 324 325 327
331 325 320 316 311 304 299 295 292 290 290 291 293 291 286 282 282 284 285 287 292 297 300 301 298 292 287 285 283 277 272 265 256 250 244 238 230 226 226 230 234 237 239 241 242 245 250 256 270 292 308 316 321 326 329 332 332 330 329 329 328 329 331 331 330 330 331 331 330 329 328 328 329 331 332 332 332 330 328 327 328 329 329 329 328
337 334 328 323 317 312 308 305 303 300 299 298 296 289 283 283 285 286 287 288 291 294 296 295 291 285 282 280 277 271 266 262 257 251 244 237 230 225 225 229 232 234 236 237 237 238 245 254 270 293 308 316 324 330 334 336 334 333 334 337 339 343 347 348 347 346 346 344 341 340 339 340 341 341 340 339 337 335 332 331 330 330 329 327 326
338 335 331 326 322 317 314 312 309 307 306 304 297 289 287 290 293 293 292 291 291 292 293 291 286 280 276 273 270 262 253 245 244 245 237 228 224 223 222 225 228 230 231 230 225 217 214 216 222 243 291 318 330 336 340 339 338 340 342 345 349 352 354 353 351 348 346 344 341 338 338 339 339 337 335 334 332 331 331 330 329 327 326 324 322
342 337 333 329 324 320 316 314 313 312 311 308 303 296 293 295 298 299 297 294 291 290 291 291 286 280 275 270 264 258 248 237 229 228 226 221 218 218 218 219 220 219 216 211 204 195 188 185 186 188 193 308 328 335 338 336 339 344 347 350 352 350 348 346 344 343 341 341 342 342 344 345 346 345 343 342 341 340 339 337 334 332 330 328 325
347 342 338 334 329 324 321 318 315 313 310 308 305 301 298 298 300 300 299 295 291 290 292 293 289 282 277 272 263 255 250 243 232 224 219 216 214 213 213 212 208 203 200 196 192 188 184 181 180 182 188 216 283 310 318 322 332 340 345 348 349 348 348 350 352 354 357 0 2 3 5 5 5 4 2 0 0 359 357 355 353 350 348 345 343
355 352 348 343 337 333 328 322 316 312 308 305 303 301 300 300 301 300 298 293 289 289 291 292 289 283 276 271 264 254 246 241 235 226 218 214 213 210 208 206 202 197 195 192 190 189 189 188 187 193 202 226 261 282 292 302 316 330 340 348 356 4 12 19 21 21 20 20 17 16 16 15 14 12 10 8 7 7 6 5 6 5 4 3 2
353 354 354 352 348 343 337 329 321 314 308 302 299 299 298 298 299 300 297 290 284 283 286 289 288 283 274 266 261 254 241 232 230 227 221 215 212 210 208 207 205 201 198 195 193 194 196 195 194 196 203 222 254 273 282 297 320 339 355 12 30 41 44 43 39 33 28 24 19 16 15 15 14 13 11 9 8 8 7 8 8 9 10 10 10
341 344 347 348 349 348 345 338 330 322 314 306 300 297 297 298 300 303 301 292 280 275 278 283 284 280 272 261 254 250 241 229 225 224 221 217 215 214 213 211 209 207 203 200 197 197 198 195 190 186 182 183 188 180 155 130 88 70 66 60 56 54 50 47 42 35 29 24 17 11 10 11 11 9 8 7 6 6 5 6 6 8 10 10 10
328 330 333 334 338 342 342 340 336 330 323 315 308 301 299 299 299 300 302 297 284 271 268 274 278 276 271 264 253 244 238 231 225 222 220 220 220 220 219 217 214 210 206 204 202 201 201 197 189 180 169 158 149 143 138 137 132 119 102 84 67 57 51 45 39 33 26 21 14 7 3 4 4 3 2 2 1 1 1 0 0 2 4 6 6
Height
3090 3091 3095 3097 3099 3101 3103 3105 3105 3106 3106 3107 3108 3110 3112 3113 3115 3117 3119 3120 3120 3120 3122 3124 3126 3127 3129 3130 3131 3132 3133 3134 3135 3135 3136 3136 3137 3138 3138 3139 3140 3141 3141 3142 3143 3143 3144 3145 3146 3146 3147 3148 3149 3150 3151 3152 3153 3153 3154 3155 3156 3157 3157 3158 3158 3158 3159 3159 3159 3159 3158 3158 3158 3158 3158 3157 3157 3157 3157 3157 3156 3157 3157 3157 3158
3088 3087 3090 3093 3095 3097 3099 3100 3101 3102 3103 3105 3107 3108 3110 3112 3114 3116 3118 3120 3121 3120 3121 3123 3125 3127 3128 3130 3131 3132 3133 3133 3134 3134 3135 3136 3137 3137 3138 3139 3139 3140 3140 3141 3142 3142 3143 3144 3145 3145 3146 3147 3148 3149 3150 3151 3152 3153 3154 3155 3155 3156 3157 3157 3157 3158 3158 3158 3158 3158 3157 3157 3157 3157 3157 3157 3157 3156 3156 3156 3156 3156 3156 3157 3157
3088 3086 3087 3089 3091 3092 3094 3096 3098 3100 3101 3103 3105 3106 3108 3110 3112 3115 3117 3120 3121 3121 3121 3122 3124 3126 3128 3129 3130 3131 3132 3133 3133 3134 3135 3135 3136 3137 3137 3138 3139 3139 3140 3141 3141 3142 3143 3144 3144 3145 3145 3146 3147 3148 3150 3151 3152 3153 3154 3154 3155 3156 3156 3157 3157 3157 3157 3157 3157 3157 3157 3157 3156 3156 3157 3156 3156 3156 3156 3155 3155 3156 3156 3156 3157
3089 3087 3087 3088 3089 3090 3092 3094 3097 3098 3100 3101 3103 3105 3107 3109 3111 3114 3116 3118 3121 3121 3121 3122 3124 3125 3127 3128 3129 3130 3131 3132 3133 3133 3134 3135 3135 3136 3137 3137 3138 3139 3139 3140 3141 3141 3142 3143 3143 3144 3144 3145 3147 3148 3149 3150 3151 3152 3153 3153 3154 3155 3156 3156 3156 3156 3156 3156 3157 3157 3156 3156 3156 3156 3156 3156 3156 3155 3155 3155 3155 3155 3156 3156 3156
3090 3090 3090 3090 3091 3092 3094 3096 3098 3098 3098 3099 3099 3102 3104 3106 3109 3113 3115 3117 3119 3120 3120 3122 3124 3125 3127 3128 3129 3130 3130 3131 3132 3133 3134 3134 3135 3135 3136 3137 3137 3138 3138 3139 3140 3141 3141 3142 3143 3143 3144 3145 3146 3147 3148 3149 3150 3151 3152 3153 3154 3155 3155 3155 3155 3155 3155 3156 3156 3156 3156 3156 3156 3155 3155 3155 3155 3155 3155 3155 3155 3155 3156 3156 3156
3092 3093 3093 3092 3093 3094 3096 3097 3098 3099 3099 3098 3098 3100 3102 3104 3107 3111 3114 3116 3118 3119 3120 3121 3123 3125 3126 3127 3128 3129 3130 3131 3131 3132 3133 3134 3134 3135 3136 3136 3137 3137 3138 3139 3139 3140 3141 3141 3142 3143 3144 3145 3146 3147 3148 3149 3150 3150 3151 3152 3153 3154 3154 3154 3154 3155 3155 3155 3155 3155 3155 3155 3155 3154 3154 3154 3155 3155 3154 3155 3155 3155 3155 3156 3156
3093 3094 3094 3093 3094 3095 3095 3096 3097 3098 3099 3099 3100 3102 3103 3105 3106 3108 3110 3114 3117 3118 3119 3121 3122 3123 3125 3126 3128 3129 3130 3131 3131 3132 3133 3133 3134 3135 3135 3136 3136 3137 3137 3138 3139 3139 3140 3141 3142 3143 3144 3144 3145 3146 3147 3148 3149 3150 3151 3151 3152 3152 3152 3153 3153 3153 3154 3154 3154 3154 3154 3154 3154 3153 3153 3153 3154 3154 3154 3154 3154 3154 3154 3154 3154
3092 3093 3093 3092 3093 3094 3094 3094 3096 3097 3098 3098 3099 3101 3102 3104 3106 3108 3109 3112 3115 3117 3118 3119 3121 3122 3124 3125 3127 3129 3130 3130 3131 3132 3132 3133 3134 3134 3135 3135 3136 3137 3137 3137 3138 3139 3140 3141 3142 3142 3143 3144 3145 3146 3147 3148 3148 3149 3150 3150 3151 3151 3151 3152 3152 3152 3152 3152 3152 3153 3153 3153 3153 3153 3153 3152 3153 3153 3153 3152 3153 3153 3153 3153 3153
3091 3091 3092 3091 3092 3093 3092 3092 3094 3095 3096 3096 3096 3098 3100 3103 3105 3107 3109 3111 3113 3115 3116 3118 3120 3121 3123 3125 3126 3128 3129 3130 3131 3132 3132 3133 3134 3134 3134 3135 3135 3136 3137 3137 3138 3138 3139 3140 3141 3141 3142 3143 3144 3145 3146 3147 3147 3148 3148 3149 3149 3150 3150 3150 3150 3151 3151 3151 3151 3151 3151 3151 3151 3151 3151 3151 3151 3151 3151 3151 3151 3151 3151 3150 3151
3089 3089 3089 3089 3090 3090 3090 3091 3092 3093 3094 3095 3095 3096 3099 3101 3103 3105 3107 3109 3112 3114 3115 3117 3119 3120 3122 3124 3125 3127 3128 3129 3130 3131 3132 3133 3133 3134 3134 3135 3135 3135 3136 3137 3137 3138 3138 3139 3140 3140 3141 3142 3143 3144 3144 3145 3145 3146 3146 3147 3147 3148 3148 3148 3149 3149 3149 3149 3149 3149 3149 3149 3149 3149 3149 3149 3149 3149 3149 3149 3149 3149 3148 3148 3149
3088 3088 3088 3087 3087 3088 3088 3089 3090 3091 3092 3094 3095 3096 3097 3099 3101 3103 3105 3108 3110 3112 3114 3116 3117 3119 3121 3122 3124 3125 3126 3127 3128 3130 3131 3132 3133 3133 3133 3134 3134 3135 3135 3135 3136 3137 3137 3138 3138 3139 3140 3141 3141 3142 3142 3143 3143 3144 3144 3145 3145 3145 3146 3146 3146 3147 3147 3147 3147 3147 3147 3147 3147 3147 3147 3147 3147 3147 3147 3146 3146 3146 3146 3146 3146
3088 3087 3086 3085 3085 3086 3086 3088 3089 3090 3091 3093 3094 3095 3096 3097 3099 3101 3103 3106 3109 3111 3113 3115 3116 3118 3119 3121 3122 3124 3125 3126 3127 3128 3130 3131 3132 3132 3133 3133 3133 3134 3134 3134 3135 3135 3136 3136 3137 3138 3139 3140 3140 3141 3141 3141 3142 3142 3142 3143 3143 3143 3143 3144 3144 3144 3144 3144 3144 3144 3145 3145 3144 3144 3144 3143 3143 3143 3143 3143 3143 3143 3143 3143 3143
3087 3087 3085 3084 3083 3084 3084 3086 3087 3088 3090 3091 3092 3094 3095 3096 3098 3099 3101 3104 3108 3110 3112 3113 3115 3117 3118 3119 3121 3122 3124 3125 3126 3127 3128 3130 3130 3131 3131 3132 3132 3133 3133 3133 3134 3134 3135 3135 3136 3137 3138 3139 3139 3140 3140 3140 3140 3140 3140 3141 3141 3141 3141 3141 3142 3142 3142 3142 3142 3142 3142 3142 3142 3141 3141 3141 3141 3140 3140 3140 3140 3139 3139 3139 3140
3087 3087 3085 3084 3083 3084 3084 3085 3086 3087 3088 3090 3090 3092 3094 3095 3096 3098 3100 3103 3106 3108 3110 3112 3113 3115 3117 3118 3119 3121 3122 3123 3125 3126 3127 3128 3129 3129 3129 3130 3131 3131 3132 3133 3133 3134 3134 3134 3135 3135 3136 3137 3138 3138 3139 3139 3138 3138 3138 3138 3138 3139 3139 3139 3140 3140 3139 3139 3139 3139 3139 3138 3139 3138 3138 3138 3138 3138 3137 3136 3136 3135 3135 3135 3135
3087 3087 3085 3084 3084 3085 3085 3085 3085 3086 3087 3088 3090 3091 3092 3093 3096 3098 3099 3102 3104 3106 3108 3110 3111 3113 3115 3116 3118 3119 3120 3122 3123 3124 3125 3126 3127 3127 3128 3128 3129 3130 3131 3131 3132 3132 3132 3133 3133 3133 3134 3135 3136 3136 3137 3137 3137 3136 3136 3136 3136 3136 3137 3137 3137 3137 3137 3137 3137 3136 3136 3135 3135 3135 3135 3135 3134 3134 3133 3133 3133 3132 3131 3131 3130
3087 3086 3086 3085 3085 3085 3085 3086 3086 3087 3087 3088 3090 3091 3091 3092 3095 3097 3097 3099 3102 3104 3106 3108 3109 3111 3113 3114 3116 3117 3118 3120 3121 3122 3123 3124 3125 3126 3127 3127 3128 3129 3129 3129 3130 3130 3131 3131 3132 3132 3132 3133 3134 3134 3134 3134 3134 3134 3134 3134 3134 3134 3134 3134 3134 3134 3134 3133 3133 3133 3132 3132 3132 3132 3132 3131 3131 3130 3130 3130 3130 3128 3127 3127 3127
3088 3087 3086 3085 3085 3085 3085 3086 3086 3087 3087 3088 3088 3089 3090 3091 3093 3095 3096 3097 3100 3102 3104 3106 3107 3108 3110 3112 3114 3115 3116 3118 3119 3120 3121 3122 3123 3124 3125 3125 3126 3127 3127 3127 3128 3129 3129 3129 3129 3130 3130 3131 3131 3132 3132 3132 3131 3131 3131 3131 3132 3132 3131 3131 3131 3131 3131 3130 3130 3129 3129 3129 3129 3129 3129 3128 3128 3127 3126 3127 3126 3125 3123 3123 3122
3088 3087 3086 3085 3085 3085 3086 3086 3087 3086 3087 3087 3087 3088 3089 3090 3092 3094 3096 3097 3099 3101 3103 3104 3105 3106 3108 3109 3111 3113 3114 3115 3117 3117 3118 3119 3121 3122 3123 3123 3124 3124 3125 3126 3126 3127 3127 3127 3128 3128 3128 3129 3129 3129 3128 3128 3128 3128 3127 3128 3128 3129 3129 3129 3129 3129 3129 3128 3128 3127 3127 3126 3126 3126 3126 3125 3125 3124 3123 3123 3122 3121 3120 3119 3117
3089 3088 3087 3086 3086 3086 3086 3087 3087 3086 3086 3087 3087 3087 3088 3090 3091 3094 3096 3096 3098 3101 3101 3102 3103 3104 3106 3108 3109 3111 3112 3113 3114 3115 3116 3117 3118 3119 3120 3120 3121 3121 3122 3123 3124 3124 3124 3125 3125 3126 3126 3126 3126 3126 3125 3125 3125 3124 3124 3123 3124 3125 3126 3126 3126 3126 3126 3125 3125 3124 3124 3124 3123 3123 3123 3122 3122 3121 3120 3119 3118 3117 3116 3115 3114
3089 3089 3088 3088 3088 3088 3087 3087 3087 3087 3087 3087 3088 3088 3088 3090 3091 3093 3094 3095 3097 3099 3100 3100 3102 3103 3105 3107 3108 3109 3110 3111 3112 3113 3113 3114 3115 3117 3117 3117 3118 3119 3120 3121 3121 3121 3122 3123 3123 3123 3124 3124 3123 3123 3123 3123 3122 3122 3121 3121 3122 3123 3123 3123 3123 3123 3123 3122 3122 3121 3121 3120 3120 3120 3119 3118 3118 3117 3116 3115 3114 3113 3112 3111 3110
3090 3089 3089 3089 3089 3089 3089 3089 3088 3088 3088 3088 3089 3089 3090 3091 3091 3092 3093 3095 3096 3098 3098 3099 3101 3102 3103 3105 3106 3107 3108 3109 3109 3110 3110 3111 3112 3114 3115 3115 3116 3117 3118 3118 3119 3119 3120 3120 3121 3121 3121 3121 3121 3121 3121 3121 3121 3120 3120 3120 3120 3120 3120 3120 3120 3120 3119 3119 3118 3118 3117 3117 3116 3116 3115 3115 3114 3113 3113 3112 3111 3109 3108 3107 3106
3090 3090 3090 3090 3089 3089 3090 3089 3089 3089 3089 3090 3090 3090 3091 3091 3091 3092 3093 3094 3095 3097 3098 3099 3100 3101 3102 3103 3103 3104 3105 3105 3106 3107 3107 3108 3109 3111 3112 3113 3114 3115 3116 3116 3117 3117 3117 3118 3118 3118 3118 3118 3118 3118 3118 3119 3119 3118 3118 3118 3117 3117 3117 3117 3116 3116 3116 3115 3114 3114 3114 3113 3113 3112 3111 3111 3110 3110 3109 3108 3107 3106 3104 3103 3101
3090 3090 3090 3090 3089 3089 3089 3090 3090 3090 3090 3091 3091 3091 3091 3091 3092 3092 3093 3094 3095 3096 3097 3098 3099 3099 3100 3101 3101 3102 3102 3103 3104 3104 3105 3106 3107 3108 3110 3111 3112 3113 3114 3114 3114 3115 3115 3115 3116 3116 3116 3116 3116 3116 3116 3116 3116 3116 3115 3115 3115 3114 3114 3113 3113 3112 3112 3111 3111 3110 3110 3109 3109 3108 3107 3106 3106 3105 3105 3104 3103 3102 3100 3098 3097
3090 3090 3090 3090 3090 3090 3090 3090 3090 3090 3091 3091 3092 3092 3092 3092 3092 3093 3093 3094 3095 3095 3096 3097 3097 3098 3099 3100 3100 3100 3101 3101 3102 3103 3103 3104 3105 3106 3108 3109 3110 3111 3111 3112 3112 3112 3113 3113 3113 3113 3113 3113 3113 3114 3114 3113 3113 3113 3112 3112 3111 3111 3110 3109 3109 3108 3107 3107 3106 3106 3105 3105 3104 3103 3103 3102 3101 3100 3099 3098 3098 3097 3095 3094 3093
3090 3090 3090 3090 3091 3091 3090 3090 3091 3091 3091 3091 3092 3092 3093 3093 3093 3094 3094 3095 3095 3096 3096 3096 3096 3097 3098 3098 3099 3099 3099 3100 3100 3101 3101 3102 3103 3104 3106 3107 3108 3109 3109 3110 3110 3110 3110 3110 3110 3111 3111 3111 3111 3111 3110 3110 3110 3109 3109 3108 3108 3107 3106 3106 3105 3104 3104 3103 3103 3102 3101 3101 3100 3100 3099 3098 3097 3096 3095 3094 3093 3092 3091 3089 3088
3090 3090 3090 3090 3091 3091 3091 3091 3091 3092 3091 3091 3091 3092 3093 3093 3093 3094 3094 3094 3095 3095 3095 3095 3096 3096 3097 3097 3097 3097 3098 3098 3099 3099 3100 3101 3102 3103 3104 3105 3105 3106 3106 3107 3107 3107 3108 3108 3108 3108 3108 3108 3108 3108 3107 3107 3106 3106 3105 3105 3104 3104 3103 3103 3102 3101 3101 3100 3099 3099 3098 3097 3097 3096 3095 3094 3093 3092 3091 3089 3088 3087 3086 3085 3084
3090 3090 3090 3090 3090 3091 3091 3091 3091 3092 3091 3091 3091 3092 3092 3092 3093 3093 3093 3093 3093 3093 3094 3094 3095 3095 3095 3096 3096 3096 3096 3097 3097 3098 3099 3100 3100 3101 3102 3102 3103 3103 3103 3104 3104 3104 3105 3105 3105 3105 3105 3105 3105 3104 3104 3103 3103 3103 3102 3102 3101 3101 3100 3100 3099 3098 3097 3097 3096 3095 3094 3093 3093 3092 3091 3091 3089 3088 3087 3085 3084 3083 3082 3080 3079
3089 3089 3089 3089 3089 3090 3090 3090 3091 3091 3091 3091 3091 3091 3091 3092 3092 3092 3092 3092 3092 3092 3092 3093 3093 3093 3094 3094 3094 3095 3095 3095 3095 3096 3097 3098 3098 3099 3099 3100 3100 3101 3101 3101 3101 3102 3102 3102 3102 3102 3102 3102 3101 3101 3101 3100 3100 3100 3099 3099 3098 3098 3097 3096 3096 3095 3094 3093 3092 3091 3090 3090 3089 3088 3087 3086 3085 3084 3083 3081 3080 3078 3077 3076 3074
3088 3088 3088 3088 3088 3088 3089 3089 3089 3089 3090 3090 3091 3091 3091 3091 3091 3091 3090 3090 3090 3090 3091 3091 3092 3092 3092 3093 3093 3093 3093 3094 3094 3095 3096 3096 3097 3097 3098 3098 3099 3099 3099 3099 3099 3099 3099 3099 3099 3099 3098 3098 3098 3098 3097 3097 3096 3096 3096 3096 3095 3094 3094 3093 3092 3092 3091 3090 3089 3088 3087 3086 3085 3084 3083 3082 3081 3080 3078 3077 3076 3074 3073 3072 3070
3088 3087 3087 3087 3087 3087 3087 3088 3088 3088 3088 3089 3089 3089 3089 3089 3089 3089 3089 3089 3089 3089 3089 3090 3090 3091 3091 3091 3091 3092 3092 3092 3092 3093 3094 3094 3095 3095 3096 3096 3096 3096 3096 3096 3096 3096 3096 3096 3096 3095 3095 3095 3094 3094 3094 3094 3093 3093 3093 3092 3092 3091 3090 3090 3089 3089 3088 3087 3086 3085 3084 3083 3082 3081 3080 3078 3077 3076 3075 3074 3072 3071 3070 3068 3067
3088 3087 3087 3087 3086 3086 3086 3086 3087 3087 3087 3087 3087 3087 3088 3088 3088 3088 3087 3087 3088 3088 3088 3088 3089 3089 3090 3090 3090 3091 3091 3091 3091 3091 3092 3092 3093 3093 3093 3094 3093 3093 3092 3092 3092 3093 3093 3093 3092 3092 3092 3092 3091 3091 3091 3091 3091 3090 3090 3089 3089 3088 3088 3087 3086 3085 3084 3083 3082 3081 3080 3079 3078 3077 3076 3075 3074 3073 3071 3070 3069 3068 3066 3065 3063
3087 3087 3087 3087 3087 3086 3086 3086 3086 3086 3087 3087 3087 3086 3086 3086 3086 3086 3086 3086 3086 3087 3087 3087 3087 3087 3088 3088 3089 3089 3089 3089 3089 3089 3090 3090 3090 3091 3091 3090 3089 3089 3089 3090 3090 3090 3090 3089 3089 3089 3089 3089 3089 3089 3088 3088 3088 3088 3087 3087 3086 3085 3084 3083 3082 3082 3081 3080 3079 3078 3077 3077 3076 3075 3074 3072 3071 3069 3068 3067 3065 3064 3063 3061 3060
3086 3086 3086 3086 3086 3086 3086 3086 3086 3086 3087 3086 3086 3086 3085 3085 3085 3085 3085 3085 3085 3085 3085 3085 3085 3085 3086 3086 3087 3087 3087 3087 3087 3087 3087 3088 3088 3088 3087 3087 3086 3087 3087 3087 3087 3087 3087 3086 3086 3086 3086 3086 3086 3086 3086 3086 3086 3085 3085 3084 3083 3082 3081 3080 3080 3079 3078 3078 3077 3076 3075 3074 3073 3072 3070 3069 3068 3066 3065 3064 3062 3061 3060 3058 3057
3085 3085 3085 3085 3085 3086 3086 3086 3086 3086 3086 3086 3085 3085 3084 3084 3084 3084 3084 3084 3084 3083 3084 3084 3084 3083 3083 3084 3084 3085 3085 3085 3085 3085 3085 3085 3085 3085 3084 3084 3084 3084 3084 3084 3084 3084 3084 3084 3084 3084 3084 3084 3084 3084 3084 3084 3083 3082 3082 3081 3080 3079 3079 3078 3078 3077 3077 3076 3075 3074 3073 3071 3070 3069 3068 3066 3065 3064 3062 3061 3060 3059 3058 3057 3055
3084 3084 3084 3084 3084 3084 3084 3085 3084 3085 3085 3085 3084 3084 3084 3083 3083 3083 3082 3082 3082 3082 3082 3082 3082 3082 3082 3081 3082 3082 3083 3083 3083 3083 3082 3082 3082 3081 3081 3081 3081 3082 3081 3081 3081 3081 3081 3081 3081 3082 3082 3082 3082 3082 3082 3081 3080 3080 3079 3079 3078 3078 3077 3077 3076 3075 3074 3073 3072 3071 3070 3068 3067 3066 3065 3063 3062 3061 3060 3059 3058 3057 3056 3055 3054
3083 3083 3082 3083 3083 3083 3083 3083 3083 3083 3083 3083 3083 3083 3083 3082 3082 3081 3081 3081 3081 3080 3081 3081 3081 3080 3080 3080 3079 3079 3080 3080 3080 3080 3079 3079 3079 3078 3078 3079 3079 3079 3079 3079 3079 3079 3079 3080 3080 3080 3080 3080 3079 3079 3079 3078 3078 3078 3077 3077 3076 3076 3075 3074 3073 3072 3071 3070 3069 3067 3066 3065 3064 3063 3062 3061 3061 3060 3059 3058 3057 3056 3055 3054 3053
3083 3082 3082 3082 3081 3081 3081 3082 3082 3082 3082 3082 3082 3082 3081 3081 3080 3080 3080 3079 3079 3079 3079 3079 3079 3078 3078 3078 3077 3077 3076 3077 3077 3077 3077 3076 3076 3076 3076 3076 3077 3077 3077 3077 3078 3078 3078 3078 3078 3077 3077 3077 3077 3076 3076 3076 3076 3076 3076 3075 3074 3073 3073 3072 3071 3070 3068 3067 3066 3065 3064 3063 3062 3062 3061 3060 3059 3059 3058 3057 3056 3055 3054 3053 3052
3082 3081 3081 3081 3080 3080 3080 3080 3080 3080 3080 3080 3080 3080 3080 3079 3079 3078 3078 3078 3077 3077 3077 3077 3077 3076 3076 3075 3075 3074 3074 3074 3074 3074 3074 3074 3074 3074 3074 3075 3075 3075 3075 3076 3076 3076 3076 3075 3075 3075 3075 3074 3075 3075 3075 3075 3074 3074 3073 3073 3072 3071 3070 3069 3068 3067 3066 3065 3065 3064 3063 3062 3062 3061 3060 3059 3058 3057 3056 3055 3054 3053 3052 3052 3051
3081 3080 3080 3080 3079 3079 3079 3079 3079 3079 3079 3078 3078 3078 3078 3078 3077 3077 3076 3076 3076 3075 3075 3075 3075 3074 3073 3073 3073 3072 3072 3072 3072 3072 3072 3072 3073 3073 3073 3073 3073 3074 3074 3074 3074 3074 3074 3073 3073 3073 3073 3073 3074 3074 3073 3073 3072 3072 3071 3070 3069 3068 3068 3067 3066 3066 3065 3065 3064 3063 3063 3062 3061 3060 3059 3058 3057 3056 3055 3054 3053 3052 3051 3051 3050
3080 3080 3079 3079 3079 3078 3078 3078 3077 3077 3077 3077 3077 3077 3076 3076 3076 3075 3075 3074 3074 3074 3074 3073 3072 3072 3071 3071 3071 3070 3070 3070 3070 3070 3071 3071 3071 3071 3071 3072 3072 3072 3072 3072 3072 3072 3072 3072 3072 3072 3072 3072 3072 3072 3071 3071 3070 3069 3069 3068 3067 3067 3067 3066 3066 3066 3065 3065 3064 3063 3061 3060 3059 3058 3058 3057 3056 3055 3054 3054 3053 3052 3051 3050 3048
3080 3079 3079 3078 3078 3078 3077 3077 3076 3076 3076 3076 3075 3075 3075 3074 3074 3073 3072 3072 3072 3071 3071 3071 3070 3069 3069 3068 3068 3068 3068 3069 3069 3069 3069 3069 3070 3070 3070 3070 3070 3070 3070 3070 3070 3071 3071 3071 3071 3071 3071 3071 3070 3070 3069 3069 3068 3068 3067 3067 3067 3067 3066 3066 3066 3065 3065 3064 3063 3061 3060 3059 3058 3057 3057 3056 3055 3055 3054 3053 3052 3051 3050 3048 3047
3079 3079 3078 3078 3077 3077 3076 3076 3075 3075 3075 3074 3074 3074 3074 3073 3072 3071 3070 3070 3070 3070 3069 3069 3068 3067 3067 3066 3066 3066 3066 3067 3067 3067 3067 3068 3068 3068 3068 3069 3069 3069 3069 3069 3070 3070 3070 3070 3070 3070 3069 3069 3069 3068 3068 3068 3068 3067 3067 3067 3067 3066 3066 3066 3065 3064 3063 3062 3061 3060 3059 3058 3058 3057 3056 3055 3055 3054 3053 3052 3051 3050 3049 3047 3046
3079 3079 3078 3077 3076 3076 3075 3075 3074 3074 3074 3074 3074 3073 3072 3072 3071 3070 3069 3068 3068 3068 3068 3068 3067 3066 3065 3065 3065 3064 3064 3065 3065 3065 3066 3066 3066 3067 3067 3067 3068 3068 3069 3069 3069 3069 3069 3069 3068 3068 3068 3068 3068 3068 3068 3067 3067 3067 3067 3067 3067 3066 3066 3065 3064 3063 3062 3061 3060 3060 3059 3058 3057 3056 3055 3054 3054 3053 3052 3051 3050 3049 3048 3046 3045
3079 3078 3078 3077 3076 3075 3074 3074 3074 3073 3073 3073 3073 3072 3071 3071 3070 3069 3068 3067 3067 3067 3067 3067 3066 3065 3064 3064 3064 3063 3063 3063 3064 3064 3064 3065 3065 3066 3066 3067 3067 3067 3068 3068 3068 3068 3067 3067 3067 3067 3067 3067 3067 3067 3067 3067 3067 3067 3067 3066 3066 3066 3065 3064 3064 3063 3062 3061 3060 3059 3059 3058 3057 3056 3055 3054 3053 3052 3051 3050 3049 3048 3047 3046 3044
3078 3078 3077 3077 3076 3075 3074 3073 3073 3072 3072 3072 3072 3071 3071 3070 3069 3068 3067 3066 3066 3066 3066 3066 3065 3064 3064 3063 3063 3063 3063 3063 3063 3063 3064 3064 3064 3065 3065 3065 3066 3066 3066 3066 3066 3066 3066 3066 3067 3067 3067 3067 3067 3067 3067 3067 3067 3066 3066 3066 3066 3065 3064 3064 3063 3062 3061 3061 3060 3059 3058 3057 3056 3055 3054 3053 3052 3051 3050 3049 3048 3047 3046 3044 3043
3078 3077 3077 3076 3075 3074 3073 3073 3072 3071 3071 3071 3070 3070 3070 3069 3068 3068 3066 3066 3065 3064 3065 3065 3064 3063 3063 3062 3062 3062 3061 3061 3061 3061 3062 3063 3063 3063 3064 3064 3064 3065 3065 3065 3065 3066 3066 3066 3066 3066 3066 3066 3066 3066 3066 3066 3066 3066 3065 3065 3065 3064 3064 3063 3062 3061 3061 3060 3059 3058 3057 3057 3056 3055 3054 3053 3052 3051 3050 3048 3047 3046 3044 3043 3042
3078 3077 3076 3076 3075 3074 3073 3072 3071 3071 3070 3070 3069 3069 3068 3068 3068 3067 3066 3065 3064 3063 3063 3063 3063 3062 3062 3061 3061 3060 3060 3060 3060 3060 3061 3061 3062 3062 3063 3063 3064 3064 3064 3065 3065 3065 3065 3065 3065 3065 3065 3065 3065 3065 3065 3065 3065 3065 3064 3064 3064 3063 3062 3062 3061 3061 3060 3059 3059 3058 3057 3056 3056 3055 3054 3053 3051 3050 3049 3048 3046 3045 3044 3042 3041
3078 3077 3076 3075 3074 3073 3072 3072 3071 3070 3069 3069 3068 3068 3067 3067 3067 3066 3065 3064 3063 3063 3062 3062 3062 3061 3061 3060 3060 3059 3059 3059 3060 3060 3060 3061 3061 3062 3062 3062 3063 3063 3064 3064 3064 3064 3064 3064 3065 3065 3065 3064 3064 3064 3064 3064 3064 3064 3063 3063 3063 3062 3062 3061 3061 3060 3060 3059 3059 3058 3057 3056 3055 3054 3053 3052 3051 3050 3049 3048 3046 3045 3043 3042 3040
3078 3077 3076 3075 3074 3073 3072 3071 3070 3069 3069 3068 3067 3066 3066 3066 3065 3065 3065 3064 3063 3062 3061 3061 3061 3060 3060 3060 3059 3059 3059 3059 3059 3059 3060 3060 3061 3061 3061 3062 3062 3062 3063 3063 3063 3063 3064 3064 3064 3064 3063 3063 3063 3063 3063 3063 3063 3063 3062 3062 3062 3062 3061 3061 3060 3060 3060 3059 3059 3058 3057 3056 3055 3054 3053 3052 3051 3050 3049 3048 3046 3045 3043 3042 3041
3078 3077 3076 3075 3074 3073 3072 3071 3070 3069 3068 3067 3066 3066 3065 3065 3064 3064 3064 3063 3062 3061 3061 3060 3060 3059 3059 3059 3058 3058 3058 3058 3058 3059 3059 3060 3060 3060 3060 3061 3061 3061 3062 3062 3062 3063 3063 3063 3063 3063 3062 3062 3062 3062 3062 3062 3062 3062 3062 3062 3062 3061 3061 3061 3060 3060 3060 3059 3059 3058 3057 3056 3055 3054 3053 3052 3051 3050 3049 3047 3046 3045 3043 3042 3041
3077 3076 3075 3074 3073 3072 3071 3070 3069 3068 3067 3066 3065 3065 3064 3064 3063 3063 3062 3062 3061 3060 3060 3060 3059 3058 3058 3058 3058 3058 3057 3057 3058 3058 3058 3059 3059 3059 3060 3060 3060 3061 3061 3061 3062 3062 3062 3062 3062 3062 3062 3061 3061 3062 3062 3062 3062 3062 3061 3061 3061 3061 3061 3061 3060 3060 3060 3059 3059 3058 3057 3056 3055 3054 3053 3052 3051 3050 3048 3047 3046 3045 3043 3042 3041